GW4812 Weather Reports


Display with metric or nautical units.
time (UTC)temp
F
wind
direction
speed
MPH
gust
MPH
rain 1hr
in
rain 24hr
in
rain mn
in
humidity
%
barometer
mb
20260503184553 56 41 3.0 6.0 0.00 0.00 0.00 36 1011.0
20260503184052 56 0 2.0 3.0 0.00 0.00 0.00 38 1011.0
20260503183553 56 119 2.0 4.0 0.00 0.00 0.00 35 1011.0
20260503183052 56 66 4.0 7.0 0.00 0.00 0.00 35 1011.0
20260503182552 55 219 4.0 9.0 0.00 0.00 0.00 36 1011.0
20260503182052 55 285 3.0 5.0 0.00 0.00 0.00 37 1011.0
20260503181553 55 269 2.0 4.0 0.00 0.00 0.00 36 1011.0
20260503181052 55 353 2.0 5.0 0.00 0.00 0.00 37 1011.0
20260503180552 55 238 3.0 7.0 0.00 0.00 0.00 38 1011.0
20260503180052 54 354 4.0 8.0 0.00 0.00 0.00 39 1012.0
20260503175552 54 163 2.0 5.0 0.00 0.00 0.00 38 1011.0
20260503175052 55 233 4.0 6.0 0.00 0.00 0.00 38 1012.0
20260503174552 55 216 4.0 7.0 0.00 0.00 0.00 37 1011.0
20260503174052 55 41 3.0 5.0 0.00 0.00 0.00 37 1011.0
20260503173552 54 33 2.0 2.0 0.00 0.00 0.00 39 1012.0
20260503173053 54 323 3.0 6.0 0.00 0.00 0.00 41 1012.0
20260503172553 54 302 2.0 5.0 0.00 0.00 0.00 39 1012.0
20260503172052 53 236 2.0 2.0 0.00 0.00 0.00 41 1012.0
20260503171553 53 29 1.0 2.0 0.00 0.00 0.00 40 1012.0
20260503171052 53 60 1.0 2.0 0.00 0.00 0.00 41 1012.0
20260503170555 53 51 2.0 6.0 0.00 0.00 0.00 43 1012.0
20260503150552 49 212 1.0 3.0 0.00 0.00 0.00 46 1013.0
20260503130612 47 159 3.0 5.0 0.00 0.00 0.00 53 1012.0
20260503110553 43 322 0.0 1.0 0.00 0.00 0.00 63 1012.0
20260503081552 45 260 2.0 2.0 0.00 0.00 0.00 55 1011.0
20260503081053 45 306 1.0 2.0 0.00 0.00 0.00 55 1011.0
20260503080553 45 300 2.0 2.0 0.00 0.00 0.00 56 1011.0
20260503072552 46 138 0.0 0.0 0.00 0.00 0.00 56 1011.0
20260503072052 46 291 1.0 2.0 0.00 0.00 0.00 55 1010.0
20260503071552 46 269 0.0 1.0 0.00 0.00 0.00 56 1010.0
20260503071052 46 359 1.0 2.0 0.00 0.00 0.00 56 1010.0
20260503070552 46 238 1.0 1.0 0.00 0.00 0.00 55 1011.0
20260503055053 47 219 0.0 1.0 0.00 0.00 0.00 53 1011.0
20260503054554 47 210 1.0 1.0 0.00 0.00 0.00 53 1011.0
20260503054053 47 260 1.0 2.0 0.00 0.00 0.00 50 1011.0
20260503053553 48 0 0.0 0.0 0.00 0.00 0.00 51 1011.0
20260503053052 48 178 0.0 1.0 0.00 0.00 0.00 50 1011.0
20260503052552 48 354 1.0 2.0 0.00 0.00 0.00 50 1011.0
20260503052052 48 187 1.0 2.0 0.00 0.00 0.00 50 1011.0
20260503051552 48 47 0.0 0.0 0.00 0.00 0.00 50 1011.0
20260503051053 48 171 0.0 1.0 0.00 0.00 0.00 50 1011.0
20260503050552 48 323 0.0 1.0 0.00 0.00 0.00 50 1011.0
20260503050053 48 240 0.0 1.0 0.00 0.00 0.00 50 1011.0
20260503045552 48 282 2.0 2.0 0.00 0.00 0.00 49 1011.0
20260503045052 49 0 0.0 0.0 0.00 0.00 0.00 50 1011.0
20260503044552 49 61 1.0 1.0 0.00 0.00 0.00 48 1011.0
20260503044052 49 311 1.0 2.0 0.00 0.00 0.00 49 1011.0
20260503043552 49 77 1.0 1.0 0.00 0.00 0.00 48 1011.0
20260503043053 49 355 0.0 0.0 0.00 0.00 0.00 48 1011.0
20260503042552 49 238 1.0 3.0 0.00 0.00 0.00 49 1011.0
20260503042052 49 0 0.0 0.0 0.00 0.00 0.00 48 1011.0
20260503041552 49 321 2.0 2.0 0.00 0.00 0.00 48 1011.0
20260503041052 49 322 1.0 2.0 0.00 0.00 0.00 48 1011.0
20260503040553 49 300 1.0 1.0 0.00 0.00 0.00 48 1011.0
20260503040053 49 279 2.0 3.0 0.00 0.00 0.00 47 1011.0
20260503035553 49 281 0.0 1.0 0.00 0.00 0.00 48 1011.0
20260503035054 49 336 0.0 1.0 0.00 0.00 0.00 48 1011.0
20260503034552 49 90 0.0 0.0 0.00 0.00 0.00 48 1011.0
20260503034053 49 332 0.0 0.0 0.00 0.00 0.00 48 1011.0
20260503033552 49 229 1.0 2.0 0.00 0.00 0.00 48 1011.0
20260503033052 49 0 0.0 0.0 0.00 0.00 0.00 49 1011.0
20260503032553 49 68 0.0 1.0 0.00 0.00 0.00 50 1011.0
20260503032053 49 275 0.0 0.0 0.00 0.00 0.00 49 1011.0
20260503031552 49 296 0.0 0.0 0.00 0.00 0.00 49 1011.0
20260503031052 49 313 0.0 0.0 0.00 0.00 0.00 49 1011.0
20260503030553 50 270 0.0 1.0 0.00 0.00 0.00 48 1011.0
20260503030053 50 340 0.0 1.0 0.00 0.00 0.00 46 1011.0
20260503025552 50 334 0.0 1.0 0.00 0.00 0.00 48 1011.0
20260503025052 50 220 0.0 0.0 0.00 0.00 0.00 47 1011.0
20260503024552 50 14 0.0 1.0 0.00 0.00 0.00 47 1011.0
20260503024052 50 90 0.0 1.0 0.00 0.00 0.00 47 1011.0
20260503023553 50 286 1.0 2.0 0.00 0.00 0.00 46 1011.0
20260503023053 50 245 1.0 2.0 0.00 0.00 0.00 46 1011.0
20260503022552 50 161 0.0 1.0 0.00 0.00 0.00 47 1011.0
20260503022053 51 0 0.0 0.0 0.00 0.00 0.00 47 1011.0
20260503021552 51 203 1.0 1.0 0.00 0.00 0.00 47 1011.0
20260503021053 51 0 0.0 0.0 0.00 0.00 0.00 45 1011.0
20260503020552 51 0 0.0 0.0 0.00 0.00 0.00 47 1011.0
20260503020053 51 230 1.0 1.0 0.00 0.00 0.00 46 1011.0
20260503015552 51 303 1.0 1.0 0.00 0.00 0.00 46 1011.0
20260503015053 51 239 0.0 1.0 0.00 0.00 0.00 45 1011.0
20260503014552 51 0 0.0 0.0 0.00 0.00 0.00 44 1011.0
20260503014054 51 271 0.0 2.0 0.00 0.00 0.00 46 1012.0
20260503013552 51 256 1.0 2.0 0.00 0.00 0.00 46 1011.0
20260503013053 51 259 0.0 1.0 0.00 0.00 0.00 47 1011.0
20260503012553 51 292 0.0 1.0 0.00 0.00 0.00 49 1011.0
20260503012052 51 282 0.0 1.0 0.00 0.00 0.00 49 1011.0
20260503011552 51 260 1.0 2.0 0.00 0.00 0.00 50 1011.0
20260503011052 51 272 1.0 1.0 0.00 0.00 0.00 50 1011.0
20260503010553 51 257 0.0 1.0 0.00 0.00 0.00 50 1011.0
20260503010053 51 274 0.0 1.0 0.00 0.00 0.00 50 1011.0
20260503005553 51 272 1.0 2.0 0.00 0.00 0.00 49 1011.0
20260503005053 52 0 0.0 0.0 0.00 0.00 0.00 51 1011.0
20260503004552 52 250 0.0 2.0 0.00 0.00 0.00 49 1011.0
20260503004053 52 262 0.0 1.0 0.00 0.00 0.00 49 1011.0
20260503003553 52 254 0.0 0.0 0.00 0.00 0.00 49 1011.0
20260503003052 52 265 1.0 1.0 0.00 0.00 0.00 48 1011.0
20260503002552 52 277 0.0 1.0 0.00 0.00 0.00 48 1011.0
20260503002052 53 273 1.0 1.0 0.00 0.00 0.00 47 1011.0
20260503001552 53 259 0.0 1.0 0.00 0.00 0.00 46 1011.0
20260503001052 53 0 0.0 0.0 0.00 0.00 0.00 44 1011.0
20260503000552 53 0 0.0 0.0 0.00 0.00 0.00 44 1011.0
20260503000052 53 242 0.0 1.0 0.00 0.00 0.00 43 1011.0
20260502235553 53 305 0.0 1.0 0.00 0.00 0.00 44 1011.0
20260502235053 54 266 0.0 0.0 0.00 0.00 0.00 43 1011.0
20260502234552 54 0 0.0 0.0 0.00 0.00 0.00 45 1011.0
20260502234052 54 246 0.0 1.0 0.00 0.00 0.00 44 1011.0
20260502233552 55 191 0.0 0.0 0.00 0.00 0.00 42 1011.0
20260502233052 55 226 0.0 0.0 0.00 0.00 0.00 42 1011.0
20260502232552 55 0 0.0 0.0 0.00 0.00 0.00 42 1011.0
20260502232053 55 266 0.0 1.0 0.00 0.00 0.00 40 1010.0
20260502231552 55 203 1.0 2.0 0.00 0.00 0.00 39 1010.0
20260502231052 56 204 0.0 1.0 0.00 0.00 0.00 39 1010.0
20260502230552 56 246 0.0 0.0 0.00 0.00 0.00 41 1010.0
20260502230053 56 82 0.0 1.0 0.00 0.00 0.00 39 1010.0
20260502225553 56 287 0.0 0.0 0.00 0.00 0.00 39 1010.0
20260502225052 56 40 0.0 1.0 0.00 0.00 0.00 41 1010.0
20260502224552 57 40 0.0 2.0 0.00 0.00 0.00 41 1010.0
20260502224055 57 213 0.0 1.0 0.00 0.00 0.00 38 1010.0
20260502223552 57 243 0.0 2.0 0.00 0.00 0.00 40 1010.0
20260502223053 57 199 0.0 0.0 0.00 0.00 0.00 38 1010.0
20260502222552 57 285 0.0 1.0 0.00 0.00 0.00 40 1010.0
20260502222053 57 189 0.0 2.0 0.00 0.00 0.00 39 1010.0
20260502221552 57 212 1.0 2.0 0.00 0.00 0.00 40 1010.0
20260502221052 57 203 2.0 3.0 0.00 0.00 0.00 38 1010.0
20260502220552 57 46 0.0 2.0 0.00 0.00 0.00 40 1010.0
20260502220053 57 248 2.0 3.0 0.00 0.00 0.00 38 1010.0
20260502215553 57 238 2.0 2.0 0.00 0.00 0.00 38 1010.0
20260502215052 58 214 0.0 1.0 0.00 0.00 0.00 39 1010.0
20260502214552 58 194 1.0 2.0 0.00 0.00 0.00 39 1010.0
20260502214052 58 197 2.0 3.0 0.00 0.00 0.00 40 1010.0
20260502213553 58 0 0.0 0.0 0.00 0.00 0.00 40 1010.0
20260502213053 58 78 0.0 1.0 0.00 0.00 0.00 41 1010.0
20260502212552 58 0 0.0 0.0 0.00 0.00 0.00 39 1010.0
20260502212053 58 177 1.0 2.0 0.00 0.00 0.00 38 1010.0
20260502211552 58 52 0.0 0.0 0.00 0.00 0.00 39 1010.0
20260502211052 58 0 0.0 0.0 0.00 0.00 0.00 39 1010.0
20260502210553 58 285 0.0 1.0 0.00 0.00 0.00 38 1010.0
20260502210052 58 211 0.0 1.0 0.00 0.00 0.00 39 1010.0
20260502205553 59 111 0.0 1.0 0.00 0.00 0.00 38 1010.0
20260502205053 59 0 0.0 0.0 0.00 0.00 0.00 39 1010.0
20260502204552 59 292 1.0 2.0 0.00 0.00 0.00 39 1010.0
20260502204052 59 152 1.0 2.0 0.00 0.00 0.00 39 1010.0
20260502203553 59 74 0.0 1.0 0.00 0.00 0.00 38 1010.0
20260502203052 60 200 2.0 2.0 0.00 0.00 0.00 37 1010.0
20260502202552 61 231 2.0 5.0 0.00 0.00 0.00 36 1010.0
20260502202053 61 83 2.0 3.0 0.00 0.00 0.00 37 1010.0
20260502201553 61 0 0.0 0.0 0.00 0.00 0.00 37 1010.0
20260502201052 61 233 1.0 3.0 0.00 0.00 0.00 36 1010.0
20260502200552 60 222 1.0 3.0 0.00 0.00 0.00 36 1010.0
20260502200053 60 331 1.0 2.0 0.00 0.00 0.00 37 1010.0
20260502195552 59 75 1.0 2.0 0.00 0.00 0.00 37 1010.0
20260502195052 59 243 1.0 3.0 0.00 0.00 0.00 39 1010.0
20260502194552 58 197 1.0 3.0 0.00 0.00 0.00 41 1010.0
20260502194052 58 214 1.0 3.0 0.00 0.00 0.00 39 1010.0
20260502193552 58 267 1.0 3.0 0.00 0.00 0.00 40 1010.0
20260502193052 59 103 1.0 2.0 0.00 0.00 0.00 41 1011.0
20260502192553 59 256 2.0 3.0 0.00 0.00 0.00 41 1011.0
20260502192053 59 193 0.0 2.0 0.00 0.00 0.00 38 1011.0
20260502191552 59 252 0.0 2.0 0.00 0.00 0.00 42 1011.0
20260502191052 58 281 1.0 2.0 0.00 0.00 0.00 42 1011.0
20260502190552 58 117 2.0 4.0 0.00 0.00 0.00 40 1011.0
20260502190052 58 111 1.0 3.0 0.00 0.00 0.00 43 1011.0
20260502185553 58 105 1.0 3.0 0.00 0.00 0.00 42 1011.0
20260502185052 57 14 1.0 2.0 0.00 0.00 0.00 43 1011.0